マックホルツ第1彗星

96P/Machholz 1 (2012)

English version
Home page
Updated on May 20, 2012

---------------------------------------------------------------------

・ プロフィール

・ 写真集

・ 軌道要素

The following orbital elements are taken from MPC 65938:

Epoch 2012 July 12.0 TT = JDT 2456120.5
T 2012 July 14.7837 TT                                  MPC
q   0.123791             (2000.0)            P               Q
n   0.1866165      Peri.   14.7560      -0.2063775      -0.4875062
a   3.032746       Node    94.3243      +0.7892387      -0.5954422
e   0.959182       Incl.   58.2988      +0.5783690      +0.6385815
P   5.28
From 701 observations 1986-2007, mean residual 0".7.  Nongravitational
     parameters A1 = +0.00, A2 = -0.0001.

・ 星図

・ 光度変化

        m1 = 12.7 + 5 logΔ + 12.0 log r

---------------------------------------------------------------------

軌道要素はMPCのEphemerides and Orbital Elementsに掲載されたものです。
星図はステラナビゲータ Ver.8 (アストロアーツ) で作成したものです。
光度グラフはComet for Windowsで作成したものです。

---------------------------------------------------------------------

Copyright(C) Seiichi Yoshida (comet@aerith.net). All rights reserved.